Starlink 35968

operational
NORAD ID: 66636 Int'l Des: 2025-271 Owner: SPXS Country: US Constellation: starlink
LEOCIRCULAR

About Starlink 35968

Description loading...

Live Position

Loading 3D Globe...

Upcoming Passes

Altitude History

Altitude vs Time

uPlot chart will show altitude changes over time

Two-Line Element Set

1 66636U 25271V 25338.67732919 .01037255 00000-0 43613-2 0 9991
2 66636 53.1552 226.6934 0009802 207.5046 152.5460 15.82289405 2947
Epoch: Dec 4, 2025 • Age: 13 hours

Current Status

Altitude 335.2 km
Velocity 7.71 km/s
Sub-Earth Point -41.69°S, 23.16°E
Launch Date Nov 23, 2025
Age 11 days
Type internet

Technical Details

Classification Payload
Mass 575.00 kg
Dry Mass 530.00 kg
Total Mass 575.00 kg
Length 0.30 m
Diameter 4.10 m
Span 29.00 m
Shape Box + pan
Manufacturer SPXS
Bus Type Starlink V2MO
Phase Status In Orbit
Owner/State SPXS/US

Large Constellations

Loading constellations...